HB0HF-13 Weather Reports


Display with metric or nautical units.
time (UTC)temp
F
wind
direction
speed
MPH
gust
MPH
rain 1hr
in
rain 24hr
in
rain mn
in
humidity
%
barometer
mb
20240221081035 42 0.0 0.0 0.00 0.01 0.00 70 1025.2
20240221080036 41 0.0 0.0 0.00 0.01 0.00 70 1025.2
20240221075016 41 0.0 3.0 0.00 0.01 0.00 71 1025.2
20240221074016 41 293 1.0 3.0 0.00 0.01 0.00 71 1025.4
20240221073035 41 315 3.0 4.0 0.00 0.01 0.00 71 1025.5
20240221072016 40 270 1.0 4.0 0.00 0.01 0.00 74 1025.5
20240221071016 39 0.0 0.0 0.00 0.01 0.00 79 1025.5
20240221070015 38 225 1.0 3.0 0.00 0.01 0.00 82 1025.7
20240221065016 37 338 1.0 5.0 0.00 0.01 0.00 86 1025.6
20240221064037 36 180 1.0 4.0 0.00 0.03 0.00 86 1025.4
20240221063016 36 0.0 3.0 0.00 0.04 0.00 85 1025.5
20240221062016 36 0 1.0 4.0 0.00 0.05 0.00 85 1025.4
20240221061016 36 0.0 0.0 0.00 0.05 0.00 84 1025.4
20240221060015 37 0.0 1.0 0.00 0.05 0.00 84 1025.6
20240221055015 37 225 1.0 4.0 0.00 0.05 0.00 84 1025.9
20240221054015 36 0.0 0.0 0.00 0.06 0.00 86 1025.8
20240221053015 36 0.0 0.0 0.00 0.07 0.00 86 1026.0
20240221052015 36 0.0 0.0 0.00 0.07 0.00 86 1026.1
20240221051016 36 45 2.0 9.0 0.00 0.08 0.00 86 1026.2
20240221050020 36 0.0 0.0 0.00 0.09 0.00 85 1026.5
20240221045015 37 0.0 0.0 0.00 0.09 0.00 85 1026.6
20240221044015 37 0.0 0.0 0.00 0.09 0.00 86 1026.8
20240221043035 36 0.0 2.0 0.00 0.09 0.00 87 1026.9
20240221042020 36 338 1.0 6.0 0.00 0.09 0.00 88 1027.0
20240221041015 35 0.0 0.0 0.00 0.09 0.00 89 1027.2
20240221040035 35 0.0 0.0 0.00 0.09 0.00 92 1027.2
20240221035015 35 0.0 0.0 0.00 0.10 0.00 92 1027.5
20240221034015 35 180 1.0 4.0 0.00 0.11 0.00 92 1027.6
20240221033015 34 0.0 0.0 0.00 0.12 0.00 92 1027.6
20240221032015 34 0.0 0.0 0.00 0.14 0.00 93 1027.7
20240221031035 34 0.0 0.0 0.00 0.17 0.00 92 1027.8
20240221030015 34 0.0 0.0 0.00 0.19 0.00 92 1028.0
20240221025015 34 0.0 0.0 0.00 0.19 0.00 92 1028.1
20240221024035 34 0.0 0.0 0.00 0.19 0.00 92 1028.3
20240221023015 34 0.0 0.0 0.00 0.20 0.00 92 1028.5
20240221022015 34 0.0 0.0 0.00 0.20 0.00 92 1028.8
20240221021035 34 0.0 0.0 0.00 0.20 0.00 92 1028.7
20240221020015 34 0.0 0.0 0.00 0.21 0.00 92 1028.7
20240221015015 34 0.0 1.0 0.00 0.21 0.00 92 1028.7
20240221014015 34 0.0 0.0 0.00 0.21 0.00 92 1028.8
20240221013021 34 0.0 2.0 0.00 0.21 0.00 93 1028.9
20240221012015 34 0.0 0.0 0.00 0.21 0.00 92 1029.0
20240221011015 34 0.0 0.0 0.00 0.21 0.00 92 1028.9
20240221010015 35 0.0 0.0 0.00 0.21 0.00 92 1029.0
20240221005015 35 0.0 0.0 0.00 0.22 0.00 92 1029.1
20240221004020 35 0.0 0.0 0.00 0.22 0.00 91 1029.3
20240221003015 35 0.0 0.0 0.00 0.23 0.00 91 1029.1
20240221002015 35 0.0 0.0 0.00 0.23 0.00 91 1029.3
20240221001015 35 0.0 0.0 0.00 0.25 0.00 91 1029.5
20240221000015 36 0.0 0.0 0.00 0.26 0.00 91 1029.6
20240220235015 36 0.0 0.0 0.00 0.27 0.00 91 1029.7
20240220234035 36 0.0 0.0 0.00 0.28 0.00 90 1029.8
20240220233015 36 0.0 0.0 0.00 0.28 0.00 90 1029.7
20240220232015 37 0.0 0.0 0.00 0.29 0.00 90 1029.8
20240220231015 37 0.0 0.0 0.00 0.29 0.00 90 1029.8
20240220230015 37 0.0 2.0 0.00 0.29 0.29 89 1030.0
20240220225035 38 0.0 0.0 0.00 0.31 0.29 90 1029.9
20240220224015 38 0.0 0.0 0.00 0.33 0.29 90 1029.9
20240220223020 38 0.0 0.0 0.00 0.36 0.29 89 1029.9
20240220222015 38 0.0 0.0 0.00 0.37 0.29 89 1029.9
20240220221015 38 0.0 0.0 0.00 0.37 0.29 89 1029.8
20240220220015 39 0.0 0.0 0.00 0.37 0.29 88 1029.9
20240220215015 39 0.0 0.0 0.00 0.37 0.29 89 1029.9
20240220214017 39 0.0 0.0 0.00 0.37 0.29 89 1029.8
20240220213017 39 0.0 0.0 0.00 0.37 0.29 88 1029.9
20240220212037 39 0.0 0.0 0.00 0.37 0.29 87 1029.9
20240220211037 40 0.0 0.0 0.00 0.37 0.29 88 1029.9
20240220210017 40 0.0 1.0 0.00 0.37 0.29 87 1029.8
20240220205017 40 0.0 0.0 0.00 0.37 0.29 87 1029.9
20240220204017 40 0.0 0.0 0.00 0.37 0.29 86 1029.9
20240220203017 41 0.0 0.0 0.00 0.37 0.29 86 1029.9
20240220202017 41 0.0 0.0 0.00 0.37 0.29 86 1029.9
20240220201017 41 0.0 0.0 0.00 0.37 0.29 85 1029.9
20240220200016 41 0.0 0.0 0.00 0.37 0.29 85 1029.9
20240220195037 42 0.0 0.0 0.00 0.37 0.29 84 1029.9
20240220194016 42 0.0 0.0 0.00 0.37 0.29 84 1029.8
20240220193017 42 0.0 0.0 0.00 0.37 0.29 83 1029.7
20240220192017 42 0.0 0.0 0.00 0.37 0.29 83 1029.7
20240220191036 42 0.0 0.0 0.00 0.37 0.29 83 1029.7
20240220190036 43 0.0 0.0 0.00 0.37 0.29 82 1029.8
20240220185017 43 0.0 0.0 0.00 0.37 0.29 81 1029.9
20240220184017 43 0.0 0.0 0.00 0.37 0.29 81 1029.9
20240220183016 44 0.0 0.0 0.00 0.37 0.29 80 1030.0
20240220182022 44 0.0 0.0 0.00 0.37 0.29 79 1030.0
20240220181017 44 0.0 0.0 0.00 0.37 0.29 78 1030.1
20240220180037 45 0.0 1.0 0.00 0.37 0.29 77 1030.3
20240220175036 45 0.0 1.0 0.00 0.37 0.29 77 1030.4
20240220174037 45 338 1.0 3.0 0.00 0.37 0.29 76 1030.5
20240220173017 45 338 2.0 4.0 0.00 0.37 0.29 74 1030.3
20240220172017 46 0.0 1.0 0.00 0.37 0.29 73 1030.3
20240220171016 46 45 1.0 4.0 0.00 0.37 0.29 74 1030.3
20240220170017 46 90 2.0 7.0 0.00 0.37 0.29 73 1030.2
20240220165017 46 90 1.0 7.0 0.00 0.37 0.29 72 1030.3
20240220164017 47 90 2.0 6.0 0.00 0.37 0.29 72 1030.5
20240220163016 47 90 1.0 7.0 0.00 0.37 0.29 73 1030.6
20240220162016 47 90 1.0 6.0 0.00 0.37 0.29 73 1030.4
20240220161017 47 68 1.0 4.0 0.00 0.37 0.29 73 1030.3
20240220160017 47 68 1.0 5.0 0.00 0.37 0.29 72 1030.2
20240220155016 47 45 2.0 10.0 0.00 0.37 0.29 72 1030.0
20240220154016 48 68 1.0 8.0 0.00 0.37 0.29 72 1030.2
20240220153021 48 90 1.0 8.0 0.00 0.37 0.29 71 1030.3
20240220152016 48 45 1.0 9.0 0.00 0.37 0.29 69 1030.3
20240220151017 49 68 1.0 10.0 0.00 0.37 0.29 68 1030.3
20240220150016 49 90 2.0 10.0 0.00 0.37 0.29 66 1030.5
20240220145016 49 135 1.0 3.0 0.00 0.37 0.29 64 1030.4
20240220144016 50 90 1.0 4.0 0.00 0.37 0.29 62 1030.5
20240220143016 50 0 1.0 4.0 0.00 0.37 0.29 64 1030.6
20240220142016 50 0 1.0 3.0 0.00 0.37 0.29 63 1030.5
20240220141016 50 113 1.0 3.0 0.00 0.37 0.29 63 1030.5
20240220140016 50 135 1.0 4.0 0.00 0.37 0.29 63 1030.6
20240220135016 50 135 2.0 6.0 0.00 0.37 0.29 65 1030.6
20240220134016 50 180 1.0 3.0 0.00 0.37 0.29 65 1030.7
20240220133036 50 0 1.0 4.0 0.00 0.37 0.29 65 1030.7
20240220132036 50 0.0 2.0 0.00 0.37 0.29 69 1030.8
20240220131016 48 0.0 2.0 0.00 0.37 0.29 70 1030.8
20240220130016 48 45 1.0 3.0 0.00 0.37 0.29 70 1030.8
20240220125016 48 45 1.0 7.0 0.00 0.37 0.29 73 1030.8
20240220124017 47 90 1.0 6.0 0.00 0.37 0.29 72 1030.8
20240220123021 48 68 1.0 5.0 0.00 0.37 0.29 73 1031.0
20240220122016 48 90 2.0 8.0 0.00 0.37 0.29 73 1031.0
20240220121016 48 90 3.0 10.0 0.00 0.37 0.29 72 1031.1
20240220120036 47 90 2.0 12.0 0.00 0.37 0.29 73 1031.2
20240220115036 47 90 2.0 8.0 0.00 0.37 0.29 75 1031.3
20240220114016 47 90 3.0 9.0 0.00 0.37 0.29 74 1031.4
20240220113016 47 90 2.0 7.0 0.00 0.37 0.29 76 1031.4
20240220112016 47 90 2.0 8.0 0.00 0.37 0.29 76 1031.5
20240220111016 47 68 1.0 4.0 0.00 0.37 0.29 78 1031.5
20240220110016 47 68 1.0 5.0 0.00 0.37 0.29 79 1031.6
20240220105016 46 113 2.0 7.0 0.00 0.37 0.29 80 1031.6
20240220104036 46 90 2.0 9.0 0.00 0.37 0.29 82 1031.6
20240220103016 45 90 1.0 4.0 0.00 0.37 0.29 83 1031.6
20240220102016 45 90 2.0 9.0 0.00 0.37 0.29 84 1031.7
20240220101021 45 90 1.0 5.0 0.01 0.38 0.29 85 1031.7
20240220100036 45 90 2.0 8.0 0.01 0.38 0.29 86 1031.6
20240220095016 45 90 2.0 8.0 0.01 0.38 0.29 87 1031.7
20240220094016 44 90 2.0 10.0 0.01 0.38 0.29 87 1031.5
20240220093041 44 68 1.0 6.0 0.01 0.38 0.29 89 1031.5
20240220092036 44 90 2.0 8.0 0.01 0.38 0.29 90 1031.3
20240220091036 43 90 2.0 5.0 0.00 0.38 0.28 90 1031.2
20240220090016 43 90 1.0 3.0 0.00 0.38 0.28 91 1031.3
20240220085016 43 0.0 2.0 0.00 0.38 0.28 91 1031.4
20240220084016 43 45 1.0 2.0 0.00 0.38 0.28 91 1031.2
20240220083016 42 0.0 2.0 0.00 0.38 0.28 91 1031.2
20240220082016 42 0.0 1.0 0.00 0.38 0.28 92 1031.0